Starlink 32876

operational
NORAD ID: 63151 Int'l Des: 2025-043 Owner: SPXS Country: US Constellation: starlink
LEOCIRCULAR

关于 Starlink 32876

正在加载描述...

实时位置

正在加载3D地球...

即将过境

高度历史

Altitude vs Time

uPlot chart will show altitude changes over time

两行轨道根数

1 63151U 25043V 26035.18606746 .00026955 00000-0 98465-3 0 9996
2 63151 43.0052 204.9891 0001972 280.2583 79.8046 15.27607026 52245
Epoch: Feb 4, 2026 • Age: 10 hours

当前状态

高度 485.9 km
速度 7.63 km/s
星下点 36.22°N, 19.54°W
发射日期 Mar 3, 2025
运行时间 0.9 years
类型 internet

技术详情

分类 Payload
质量 730.00 kg
干质量 700.00 kg
总质量 730.00 kg
长度 0.30 m
直径 4.10 m
跨度 29.00 m
形状 Box + pan
制造商 SPXS
平台类型 Starlink V2M
阶段状态 In Orbit
所有者/国家 SPXS/US

大型星座

Loading constellations...